When you browse on this site, cookies collect data to enhance your experience and personalize the content and advertising you see.
Visit our Privacy Policy to learn more. By continuing to use the site, you agree to this use of cookies and data.
  • In Hungary
  • List of Countries
  • For 7 days
  • Water Temperature
  • Weather Map
  • News
  • Weather Widgets
  • user-avatar
    Login

    Hourly Weather Grabowiec

    Today, 20 August, Tuesday

    Time Temperature Precipitation Wind Pressure Humidity
    00:00 +16°C° 0 mm 2 mps 754 mmHg 90%
    01:00 +16°C° 0 mm 1 mps 755 mmHg 91%
    02:00 +16°C° 0 mm 1 mps 755 mmHg 90%
    03:00 +15°C° 0 mm 1 mps 755 mmHg 89%
    04:00 +14°C° 0 mm 0 mps 756 mmHg 89%
    05:00 +16°C° 0 mm 1 mps 756 mmHg 84%
    06:00 +19°C° 0 mm 1 mps 756 mmHg 79%
    07:00 +20°C° 0 mm 1 mps 756 mmHg 74%
    08:00 +20°C° 0 mm 2 mps 756 mmHg 65%
    09:00 +23°C° 0 mm 2 mps 757 mmHg 56%
    10:00 +24°C° 0 mm 3 mps 757 mmHg 46%
    11:00 +25°C° 0 mm 3 mps 757 mmHg 45%
    12:00 +25°C° 0 mm 2 mps 757 mmHg 43%
    13:00 +26°C° 0 mm 2 mps 757 mmHg 42%
    14:00 +26°C° 0 mm 2 mps 757 mmHg 43%
    15:00 +26°C° 0 mm 1 mps 757 mmHg 43%
    16:00 +26°C° 0 mm 1 mps 757 mmHg 44%
    17:00 +24°C° 0 mm 1 mps 757 mmHg 49%
    18:00 +23°C° 0 mm 1 mps 757 mmHg 55%
    19:00 +21°C° 0 mm 1 mps 757 mmHg 60%
    20:00 +21°C° 0 mm 1 mps 757 mmHg 61%
    21:00 +20°C° 0 mm 2 mps 757 mmHg 62%
    22:00 +19°C° 0 mm 2 mps 757 mmHg 63%
    23:00 +19°C° 0.7 mm 2 mps 757 mmHg 72%

    Tomorrow, 21 August, Wednesday

    Time Temperature Precipitation Wind Pressure Humidity
    00:00 +18°C° 0.7 mm 3 mps 757 mmHg 80%
    01:00 +17°C° 0.7 mm 3 mps 757 mmHg 89%
    02:00 +16°C° 1.1 mm 3 mps 757 mmHg 91%
    03:00 +16°C° 1.1 mm 3 mps 757 mmHg 92%
    04:00 +16°C° 1.1 mm 3 mps 757 mmHg 94%
    05:00 +16°C° 0.3 mm 2 mps 757 mmHg 93%
    06:00 +16°C° 0.3 mm 2 mps 758 mmHg 91%
    07:00 +15°C° 0.3 mm 1 mps 758 mmHg 89%
    08:00 +16°C° 0.1 mm 1 mps 758 mmHg 85%
    09:00 +18°C° 0.1 mm 1 mps 758 mmHg 82%
    10:00 +19°C° 0.1 mm 1 mps 759 mmHg 79%
    11:00 +19°C° 0.2 mm 1 mps 759 mmHg 75%
    12:00 +20°C° 0.2 mm 1 mps 759 mmHg 71%
    13:00 +20°C° 0.2 mm 2 mps 759 mmHg 68%
    14:00 +20°C° 0.4 mm 2 mps 759 mmHg 69%
    15:00 +20°C° 0.4 mm 2 mps 759 mmHg 70%
    16:00 +20°C° 0.4 mm 2 mps 759 mmHg 71%
    17:00 +19°C° 0 mm 2 mps 759 mmHg 75%
    18:00 +18°C° 0 mm 2 mps 759 mmHg 79%
    19:00 +17°C° 0 mm 2 mps 759 mmHg 84%
    20:00 +16°C° 0 mm 1 mps 759 mmHg 86%
    21:00 +15°C° 0 mm 1 mps 760 mmHg 88%
    22:00 +14°C° 0 mm 1 mps 760 mmHg 90%
    23:00 +14°C° 0 mm 1 mps 760 mmHg 90%

    Day after tomorrow, 22 August, Thursday

    Time Temperature Precipitation Wind Pressure Humidity
    00:00 +14°C° 0 mm 1 mps 760 mmHg 90%
    01:00 +13°C° 0 mm 1 mps 760 mmHg 90%
    02:00 +13°C° 0 mm 1 mps 760 mmHg 90%
    03:00 +13°C° 0 mm 1 mps 760 mmHg 91%
    04:00 +12°C° 0 mm 0 mps 760 mmHg 91%
    05:00 +13°C° 0 mm 0 mps 761 mmHg 87%
    06:00 +14°C° 0 mm 0 mps 761 mmHg 82%
    07:00 +15°C° 0 mm 0 mps 761 mmHg 78%
    08:00 +17°C° 0 mm 0 mps 761 mmHg 71%
    09:00 +21°C° 0 mm 1 mps 761 mmHg 64%
    10:00 +22°C° 0 mm 1 mps 761 mmHg 57%
    11:00 +23°C° 0 mm 1 mps 761 mmHg 54%
    12:00 +24°C° 0 mm 1 mps 761 mmHg 51%
    13:00 +24°C° 0 mm 1 mps 761 mmHg 49%
    14:00 +24°C° 0 mm 1 mps 760 mmHg 50%
    15:00 +24°C° 0 mm 1 mps 760 mmHg 51%
    16:00 +24°C° 0 mm 1 mps 760 mmHg 52%
    17:00 +22°C° 0 mm 1 mps 760 mmHg 57%
    18:00 +21°C° 0 mm 1 mps 760 mmHg 61%
    19:00 +19°C° 0 mm 1 mps 760 mmHg 66%
    20:00 +19°C° 0 mm 1 mps 760 mmHg 68%
    21:00 +17°C° 0 mm 2 mps 760 mmHg 69%
    22:00 +16°C° 0 mm 2 mps 761 mmHg 71%
    23:00 +16°C° 0 mm 2 mps 761 mmHg 73%

    23 August, Friday

    Time Temperature Precipitation Wind Pressure Humidity
    00:00 +16°C° 0 mm 2 mps 761 mmHg 75%
    01:00 +15°C° 0 mm 2 mps 761 mmHg 77%
    02:00 +15°C° 0 mm 2 mps 761 mmHg 79%
    03:00 +15°C° 0 mm 2 mps 761 mmHg 80%
    04:00 +14°C° 0 mm 2 mps 761 mmHg 81%
    05:00 +16°C° 0 mm 2 mps 761 mmHg 78%
    06:00 +17°C° 0 mm 2 mps 761 mmHg 75%
    07:00 +18°C° 0 mm 2 mps 761 mmHg 72%
    08:00 +20°C° 0 mm 2 mps 761 mmHg 66%
    09:00 +21°C° 0 mm 2 mps 761 mmHg 60%
    10:00 +24°C° 0 mm 2 mps 762 mmHg 54%
    11:00 +25°C° 0 mm 2 mps 761 mmHg 51%
    12:00 +25°C° 0 mm 2 mps 761 mmHg 47%
    13:00 +26°C° 0 mm 2 mps 761 mmHg 43%
    14:00 +26°C° 0 mm 2 mps 761 mmHg 43%
    15:00 +26°C° 0 mm 2 mps 760 mmHg 43%
    16:00 +26°C° 0 mm 2 mps 760 mmHg 44%
    17:00 +24°C° 0 mm 2 mps 760 mmHg 49%
    18:00 +21°C° 0 mm 2 mps 760 mmHg 54%
    19:00 +20°C° 0 mm 2 mps 760 mmHg 60%
    20:00 +19°C° 0 mm 2 mps 760 mmHg 61%
    21:00 +18°C° 0 mm 2 mps 760 mmHg 63%
    22:00 +18°C° 0 mm 2 mps 760 mmHg 65%
    23:00 +17°C° 0 mm 2 mps 760 mmHg 67%

    24 August, Saturday

    Time Temperature Precipitation Wind Pressure Humidity
    00:00 +17°C° 0 mm 2 mps 760 mmHg 70%
    01:00 +16°C° 0 mm 2 mps 760 mmHg 73%
    02:00 +16°C° 0 mm 2 mps 760 mmHg 75%
    03:00 +15°C° 0 mm 2 mps 760 mmHg 76%
    04:00 +15°C° 0 mm 2 mps 760 mmHg 78%
    05:00 +16°C° 0 mm 2 mps 760 mmHg 75%
    06:00 +17°C° 0 mm 2 mps 760 mmHg 72%
    07:00 +18°C° 0 mm 2 mps 760 mmHg 69%
    08:00 +20°C° 0 mm 2 mps 760 mmHg 62%
    09:00 +23°C° 0 mm 2 mps 760 mmHg 56%
    10:00 +25°C° 0 mm 3 mps 759 mmHg 50%
    11:00 +25°C° 0 mm 3 mps 759 mmHg 47%
    12:00 +26°C° 0 mm 3 mps 759 mmHg 45%
    13:00 +27°C° 0 mm 3 mps 758 mmHg 42%
    14:00 +27°C° 0 mm 3 mps 758 mmHg 43%
    15:00 +26°C° 0 mm 3 mps 758 mmHg 44%
    16:00 +26°C° 0 mm 3 mps 757 mmHg 46%
    17:00 +24°C° 0 mm 3 mps 757 mmHg 52%
    18:00 +22°C° 0 mm 3 mps 757 mmHg 59%
    19:00 +20°C° 0 mm 2 mps 756 mmHg 65%
    20:00 +19°C° 0 mm 2 mps 756 mmHg 69%
    21:00 +18°C° 0 mm 3 mps 756 mmHg 72%
    22:00 +18°C° 0 mm 3 mps 756 mmHg 75%
    23:00 +17°C° 0 mm 3 mps 756 mmHg 76%

    25 August, Sunday

    Time Temperature Precipitation Wind Pressure Humidity
    00:00 +17°C° 0 mm 3 mps 756 mmHg 78%
    01:00 +17°C° 0 mm 3 mps 756 mmHg 79%
    02:00 +16°C° 0 mm 3 mps 756 mmHg 80%
    03:00 +16°C° 0 mm 3 mps 755 mmHg 82%
    04:00 +16°C° 0 mm 3 mps 755 mmHg 83%
    05:00 +17°C° 0 mm 3 mps 755 mmHg 80%
    06:00 +18°C° 0 mm 3 mps 755 mmHg 76%
    07:00 +19°C° 0 mm 3 mps 755 mmHg 73%
    08:00 +21°C° 0 mm 3 mps 755 mmHg 68%
    09:00 +24°C° 0 mm 3 mps 755 mmHg 62%
    10:00 +26°C° 0 mm 3 mps 755 mmHg 57%
    11:00 +27°C° 0 mm 3 mps 755 mmHg 55%
    12:00 +27°C° 0 mm 3 mps 754 mmHg 53%
    13:00 +28°C° 0 mm 3 mps 754 mmHg 50%
    14:00 +28°C° 0 mm 3 mps 754 mmHg 51%
    15:00 +29°C° 0 mm 2 mps 753 mmHg 52%
    16:00 +29°C° 0 mm 2 mps 753 mmHg 53%
    17:00 +27°C° 0.2 mm 3 mps 753 mmHg 59%
    18:00 +25°C° 0.2 mm 3 mps 752 mmHg 65%
    19:00 +24°C° 0.2 mm 3 mps 752 mmHg 72%
    20:00 +22°C° 0.9 mm 3 mps 752 mmHg 75%
    21:00 +21°C° 0.9 mm 3 mps 752 mmHg 79%
    22:00 +21°C° 0.9 mm 3 mps 752 mmHg 82%
    23:00 +20°C° 1.4 mm 2 mps 752 mmHg 85%
    Show more